This is the latest recevied weather packets stored in our database for station/object WX6HNX-4. If no packets are shown the sender has not sent any weather packets the latest 1 day(s).
| Time | Temp. | Humidity | Pressure | Rain* | Wind** | Luminosity | Snow |
|---|---|---|---|---|---|---|---|
| 1778044281 | 11.67° C | 78% | 1008.2 hPa | 0 mm | - | - | - |
| 1778043981 | 12.22° C | 78% | 1008.2 hPa | 0 mm | - | - | - |
| 1778042781 | 12.22° C | 82% | 1008 hPa | 0 mm | - | - | - |
| 1778041581 | 12.78° C | 84% | 1007.8 hPa | 0 mm | - | - | - |
| 1778040681 | 12.22° C | 84% | 1007.6 hPa | 0 mm | - | - | - |
| 1778039181 | 13.89° C | 74% | 1007.2 hPa | 0 mm | - | - | - |
| 1778037555 | 15° C | 70% | 1006.9 hPa | 0 mm | - | - | - |
| 1778035754 | 15° C | 69% | 1006.6 hPa | 0 mm | - | - | - |
| 1778031974 | 15° C | 70% | 1006.2 hPa | 0 mm | - | - | - |
| 1778030010 | 15° C | 68% | 1006.1 hPa | 0 mm | - | - | - |
| 1778028810 | 15° C | 69% | 1006.1 hPa | 0 mm | - | - | - |
| 1778028039 | 15° C | 71% | 1006.1 hPa | 0 mm | - | - | - |
| 1778020500 | 16.11° C | 72% | 1006.2 hPa | 0 mm | - | - | - |
| 1778019600 | 15° C | 75% | 1006.5 hPa | 0 mm | - | - | - |
| 1778019300 | 15° C | 76% | 1006.5 hPa | 0 mm | - | - | - |
| 1778017156 | 13.33° C | 86% | 1006.9 hPa | 0 mm | - | - | - |
| 1778016857 | 12.78° C | 86% | 1007.1 hPa | 0 mm | - | - | - |
| 1778015114 | 13.33° C | 87% | 1007.3 hPa | 0 mm | - | - | - |
| 1778013614 | 13.33° C | 83% | 1007.3 hPa | 0 mm | - | - | - |
| 1778011214 | 12.78° C | 85% | 1007.3 hPa | 0 mm | - | - | - |
| 1778009834 | 12.22° C | 88% | 1007.5 hPa | 0 mm | - | - | - |
| 1778009234 | 12.22° C | 88% | 1007.4 hPa | 0 mm | - | - | - |
| 1778008334 | 11.67° C | 90% | 1007.4 hPa | 0 mm | - | - | - |
| 1778006234 | 11.11° C | 92% | 1007.4 hPa | 0.51 mm | - | - | - |
| 1778004652 | 10.56° C | 92% | 1007.4 hPa | 0.76 mm | - | - | - |
* Rain latest hour (hover to see other rain measurements)
** Current wind speed in m/s (hover to see current wind gust speed)